Weather History for Deadhorse, AK

Change the Weather History Date:

Friday, July 26, 2013

  Actual Average Record
Temperature  
Mean Temperature 47 °F -  
Max Temperature 59 °F 52 °F 73 °F (2006)
Min Temperature 37 °F 38 °F 30 °F (1999)
Degree Days  
Heating Degree Days 18    
Moisture  
Dew Point 40 °F    
Average Humidity 74    
Maximum Humidity 96    
Minimum Humidity 57    
Precipitation  
Precipitation 0.00 in - - ()
Sea Level Pressure  
Sea Level Pressure 30.09 in    
Wind  
Wind Speed 7 mph (WSW)    
Max Wind Speed 16 mph    
Max Gust Speed -    
Visibility 10 miles    
Events      
Averages and records for this station are not official NWS values.
T = Trace of Precipitation, MM = Missing Value Source: NWS Daily Summary

Daily Weather History Graph

Daily Weather History Graph

Search for Another Location

Airport:

Trip Planner

Search our weather history database for the weather conditions in past years. The results will help you decide how hot, cold, wet, or windy it might be!

Date:

Astronomy

Jul. 26, 2013 Rise Set
Actual Time 2:32 AM AKDT 1:27 AM AKDT
Civil Twilight Sun does not rise Sun does not rise
Nautical Twilight Sun does not rise Sun does not rise
Astronomical Twilight Sun does not rise Sun does not rise
Moon 10:54 PM AKDT (7/26) 11:55 AM AKDT (7/26)
Length of Visible Light 24h 00m
Length of Day
22h 55m
Waning Gibbous, 79% of the Moon is Illuminated
Jul 26
Waning Gibbous
Jul 29
Last Quarter
Aug 6
New
Aug 14
First Quarter
Aug 20
Full

Hourly Weather History & Observations

Time (AKDT) Temp. Windchill Dew Point Humidity Pressure Visibility Wind Dir Wind Speed Gust Speed Precip Events Conditions
12:53 AM 45.0 °F 41.8 °F 39.0 °F 80% 30.06 in 10.0 mi NW 5.8 mph - N/A   Mostly Cloudy
1:53 AM 42.1 °F 39.2 °F 39.0 °F 89% 30.06 in 10.0 mi SSW 4.6 mph - N/A   Mostly Cloudy
2:53 AM 37.0 °F 32.4 °F 35.1 °F 93% 30.07 in 10.0 mi SW 5.8 mph - N/A   Mostly Cloudy
3:53 AM 39.0 °F 33.4 °F 37.9 °F 96% 30.07 in 10.0 mi SSW 8.1 mph - N/A   Mostly Cloudy
4:53 AM 39.0 °F 34.8 °F 37.0 °F 93% 30.08 in 10.0 mi SW 5.8 mph - N/A   Mostly Cloudy
5:53 AM 37.9 °F 32.7 °F 36.0 °F 93% 30.08 in 10.0 mi WSW 6.9 mph - N/A   Mostly Cloudy
6:53 AM 44.1 °F 40.1 °F 41.0 °F 89% 30.08 in 10.0 mi West 6.9 mph - N/A   Scattered Clouds
7:53 AM 46.9 °F - 41.0 °F 80% 30.09 in 10.0 mi West 6.9 mph - N/A   Scattered Clouds
8:53 AM 46.9 °F - 39.9 °F 77% 30.09 in 10.0 mi WSW 8.1 mph - N/A   Mostly Cloudy
9:53 AM 50.0 °F - 39.0 °F 66% 30.09 in 10.0 mi West 10.4 mph - N/A   Mostly Cloudy
10:53 AM 51.1 °F - 39.0 °F 63% 30.10 in 10.0 mi WSW 11.5 mph - N/A   Overcast
11:53 AM 52.0 °F - 37.0 °F 57% 30.09 in 10.0 mi WSW 11.5 mph - N/A   Overcast
12:53 PM 53.1 °F - 39.0 °F 59% 30.09 in 10.0 mi West 12.7 mph - N/A   Mostly Cloudy
1:53 PM 55.0 °F - 41.0 °F 59% 30.09 in 10.0 mi West 16.1 mph - N/A   Overcast
2:53 PM 55.0 °F - 39.9 °F 57% 30.09 in 10.0 mi West 12.7 mph - N/A   Overcast
3:53 PM 57.0 °F - 42.1 °F 57% 30.10 in 10.0 mi West 8.1 mph - N/A   Overcast
4:53 PM 57.9 °F - 43.0 °F 58% 30.09 in 10.0 mi West 12.7 mph - N/A   Overcast
5:53 PM 54.0 °F - 44.1 °F 69% 30.10 in 10.0 mi NNE 4.6 mph - N/A   Overcast
6:53 PM 54.0 °F - 44.1 °F 69% 30.10 in 10.0 mi ENE 4.6 mph - N/A   Mostly Cloudy
7:53 PM 52.0 °F - 42.1 °F 69% 30.11 in 10.0 mi ENE 6.9 mph - N/A   Overcast
8:53 PM 51.1 °F - 42.1 °F 71% 30.11 in 10.0 mi East 8.1 mph - N/A   Overcast
9:53 PM 50.0 °F - 42.1 °F 74% 30.10 in 10.0 mi East 4.6 mph - N/A   Overcast
10:53 PM 50.0 °F - 43.0 °F 77% 30.11 in 10.0 mi ESE 5.8 mph - N/A   Mostly Cloudy
11:53 PM 48.9 °F - 43.0 °F 80% 30.12 in 10.0 mi ENE 4.6 mph - N/A   Mostly Cloudy